Regional Weather Roundup
Issued by NWS Cleveland, OH

Home | Current Version | Previous Version | Text Only | Print | Product List | Glossary On
Versions: 1 2 3 4 5 6 7 8 9 10 11 12 13 14 15 16 17 18 19 20 21 22 23 24 25 26 27 28 29 30 31 32 33 34 35 36 37 38 39 40 41 42 43 44 45 46 47 48 49 50
000
ASUS41 KCLE 231912
RWRCLE
OHIO REGIONAL WEATHER ROUNDUP
NATIONAL WEATHER SERVICE WILMINGTON, OH
300 PM EDT TUE MAY 23 2017

NOTE: "FAIR" INDICATES FEW OR NO CLOUDS BELOW 12,000 FEET WITH NO
SIGNIFICANT WEATHER AND/OR OBSTRUCTIONS TO VISIBILITY.

OHZ001>008-015>018-024>027-034-035-043-044-232000-
   NORTHWEST OHIO

CITY           SKY/WX    TMP DP  RH WIND       PRES   REMARKS
DEFIANCE       FAIR      70  43  37 VRB7      29.75F
FINDLAY        FAIR      74  44  34 SE10G16   29.75F
TOLEDO EXPRESS PTSUNNY   73  48  41 VRB6      29.76F
TOLEDO EXEC    FAIR      73  52  47 NE10      29.77F
LIMA           FAIR      70  48  45 E8        29.75F
$$

OHZ009>014-019>023-028>033-038-089-232000-
   NORTHEAST OHIO

CITY           SKY/WX    TMP DP  RH WIND       PRES   REMARKS
CLE-HOPKINS    FAIR      77  46  33 E13       29.80F
CLE-LAKEFRONT  FAIR      65  53  65 N12       29.78F
CUY CO. ARPT   PTSUNNY   75  50  41 SE12      29.79F
LORAIN-ELYRIA  FAIR      74  43  32 E6        29.78F
ASHTABULA      FAIR      73  47  39 SE10      29.82F
AKRON-CANTON   FAIR      73  45  36 E10       29.79F
WOOSTER        FAIR      72  46  39 SE9G16    29.77F
MANSFIELD      FAIR      72  46  39 E15       29.77F
YOUNGSTOWN     CLOUDY    72  43  35 E12       29.81F
$$

OHZ042-051>053-060>062-070>072-077>081-232000-
  SOUTHWEST OHIO

CITY           SKY/WX    TMP DP  RH WIND       PRES   REMARKS
CINC-COVINGTON PTSUNNY   74  49  41 E9        29.72F
CINC-LUNKEN    FAIR      75  53  46 VRB3      29.72F
HAMILTON       FAIR      75  50  41 VRB5      29.73F
DAYTON         PTSUNNY   72  48  42 SE5       29.75F
WRIGHT-PAT AFB FAIR      73  47  38 E6        29.73F
DAYTON GENERAL FAIR      72  49  44 MISG      29.73F
WILMINGTON     FAIR      72  51  47 CALM      29.74F
$$

OHZ036-037-039>041-045>050-054>059-063>069-073>076-082>088-232000-
  CENTRAL AND SOUTHEAST OHIO

CITY           SKY/WX    TMP DP  RH WIND       PRES   REMARKS
COLUMBUS       PTSUNNY   75  46  35 SE10      29.75F
OSU AIRPORT    FAIR      73  49  42 E5        29.75F
BOLTON FIELD   SUNNY     72  50  46 S14       29.76F
RICKENBACK AFB FAIR      72  48  42 SE6       29.75F
NEWARK         FAIR      74  43  32 E8        29.76F
MARION         FAIR      73  43  33 SE10      29.76F
LANCASTER      FAIR      73  51  46 E10       29.76F
ZANESVILLE     FAIR      74  46  36 E9        29.76F
NEW PHILLY     FAIR      74  48  39 E9G16     29.78F
$$



USA.gov is the U.S. government's official web portal to all federal, state and local government web resources and services.